Regional Weather Roundup
Issued by NWS Northern Indiana

Home | Current Version | Previous Version | Graphics & Text | Print | Product List | Glossary On
Versions: 1 2 3 4 5 6 7 8 9 10 11 12 13 14 15 16 17 18 19 20 21 22 23 24 25 26 27 28 29 30 31 32 33 34 35 36 37 38 39 40 41 42 43 44 45 46 47 48 49 50
000
ASUS43 KIWX 281100
RWRIWX

KIWX WEATHER ROUNDUP
NATIONAL WEATHER SERVICE NORTHERN INDIANA
600 AM EST FRI NOV 28 2014

NOTE: "FAIR" INDICATES FEW OR NO CLOUDS BELOW 12,000 FEET WITH NO
SIGNIFICANT WEATHER AND/OR OBSTRUCTIONS TO VISIBILITY.

* THESE STATIONS ARE NOT UNDER NWS QUALITY CONTROL. THEY ALSO MAY NOT
  REPORT WEATHER SUCH AS PRECIPITATION OR FOG.

INZ001>027-281200-
NORTHERN INDIANA

CITY           SKY/WX    TMP DP  RH WIND       PRES   REMARKS
GARY*          CLOUDY    23  12  63 CALM      30.35F
SOUTH BEND     CLOUDY    20  15  81 SW5       30.36S WCI  13
GOSHEN         CLOUDY    19  15  84 SW5       30.35R WCI  12
ANGOLA*        PTCLDY    18  14  86 CALM      30.33R
FORT WAYNE     CLOUDY    21  15  78 W6        30.38R WCI  13

$$
INZ028>050-281200-
CENTRAL INDIANA

CITY           SKY/WX    TMP DP  RH WIND       PRES   REMARKS
LAFAYETTE      CLOUDY    19  16  88 CALM      30.37F
KOKOMO*        MOCLDY    21  18  86 SW5       30.37S WCI  15
MUNCIE*        PTCLDY    22  18  85 SW6       30.37S WCI  14
INDIANAPOLIS   CLOUDY    21  17  84 SW5       30.37F WCI  15

$$
MIZ043>046-050>051-056>058-064>065-071>073-077>080-281200-
SOUTHWEST LOWER MICHIGAN

CITY           SKY/WX    TMP DP  RH WIND       PRES   REMARKS
BATTLE CREEK   CLOUDY    22  14  71 S5        30.33S WCI  16
BENTON HARBOR  CLOUDY    24  15  68 SW9       30.34F WCI  14
COLDWATER*     CLOUDY    21  18  88 CALM      30.33S
HILLSDALE*     MOCLDY    15  13  92 CALM      30.31R
HOLLAND        CLOUDY    21  16  81 SE3       30.34S
GRAND RAPIDS   CLOUDY    20  13  74 S3        30.34R
KALAMAZOO      CLOUDY    22  17  81 SW5       30.34R WCI  16
STURGIS*       CLOUDY    18  16  93 SW6       30.34R WCI   9
THREE RIVERS*  CLOUDY    20  18  93 CALM      30.35S

$$
OHZ001>008-015>018-024>025-281200-
NORTHWEST OHIO

CITY           SKY/WX    TMP DP  RH WIND       PRES   REMARKS
DEFIANCE       MOCLDY    22  17  81 CALM      30.37R
FINDLAY        CLOUDY    25  18  74 NW3       30.34S
TOLEDO EXPRESS CLEAR     17   9  70 NW3       30.35S
TOLEDO METCALF CLEAR     16   8  71 NW5       30.37S WCI   9
LIMA           PTCLDY    22  17  81 NW5       30.34S WCI  16

$$
AND FOR LAKE MICHIGAN COASTAL AND OPEN LAKE BUOY OBSERVATIONS

STATION/POSITION TEMP    WIND        PRES    VSBY  WAVE
                 AIR SEA DIR/SP/G                  HT/PER
                 (F)     (DEG/KT/KT) (MB)    (MI)  (FT/S)
CALUMET HARBOR    21     190/  4/  5 1026.2F
MICHIGAN CITY     21     190/ 11/ 12   N/A
SAINT JOSEPH      27     210/ 14/ 17 1028.4R
SOUTH LAKE BUOY   24 42  260/ 12/ 16 1028.9R         2/ 6

$$
&&



USA.gov is the U.S. government's official web portal to all federal, state and local government web resources and services.